Terug naar catalogus

STARLINK-37503

ActiefCommunicatieVLEO
NORAD 69262·PAYLOAD·🇺🇸 United States

Gelanceerd May 29, 2026 vanaf Cape Canaveral Space Force Station

Loading…

Volgende Passages (komende 24 uur)

TLE

VersSource: CelesTrak SupGP

Epoch: Sep 15, 2026, 03:32 UTC

1 69262C 26117AA  26258.14770833  .00043020  00000+0  12716-2 0  2583
2 69262  53.1571 178.9463 0001054  84.1823 240.9005 15.34356277    17

Volg STARLINK-37503 in realtime met AllMySat

Download on the App Store